Location: Hilton Head Island
(32.2163°N, 80.7526°W)
Time: 03:19:28
(UTC-04:00)

Vanguard 1 - Pass Details

Date: 24 February 2026
Orbit: 653 x 3818 km, 34.2° (Epoch: 9 March)

Event Time Altitude Azimuth Distance (km) Brightness Sun altitude
Rises 14:14:00 0° 252° (WSW) 3,664 13.6 42.4°
Reaches altitude 10° 14:16:05 10° 252° (WSW) 2,940 13.3 42.2°
Maximum altitude 14:23:22 87° 164° (SSE) 1,597 11.9 41.3°
Drops below altitude 10° 14:37:27 10° 77° (ENE) 5,364 13.5 39.4°
Sets 14:42:43 0° 78° (ENE) 6,858 14.0 38.7°
